Flag for Vietnam Weather past 2 weeks in Hanoi, Vietnam

Now
68 °F

Fog.


Feels Like: 68 °F
Forecast: 66 / 72 °F
Wind: 12 mph from East

Location: Ha Noi Airport

Current Time: Jan 27, 2015 at 3:46:09 AM

Latest Report: Jan 27, 2015 at 3:00 AM


Visibility: 3 mi

Pressure: 29.95 "Hg

Humidity: 88%

Dew point: 64 °F

Location of HanoiLocation

Historic Weather in Hanoi — Graph

°F

Hanoi temperature yesterday

Maximum temperature yesterday: 79 °F (at 1:00 PM)
Minimum temperature yesterday: 66 °F (at 2:00 AM)
Average temperature yesterday: 71 °F

Past Weeks' High & Low Weather Summary

 TemperatureHumidityPressure
High81 °F (Jan 25, 3:00 PM)100% (Jan 12, 4:30 AM)30.30 "Hg (Jan 12, 4:30 AM)
Low48 °F (Jan 13, 6:00 AM)33% (Jan 17, 3:30 PM)29.86 "Hg (Jan 24, 3:00 PM)
Average64 °F74%30.13 "Hg
* Reported Jan 12 2:00 AM — Jan 27 2:30 AM, Hanoi, Weather by CustomWeather, © 2014

Note: Actual official high and low records may vary slightly from our data, if they occured in-between our weather recording intervals... More about our weather records

Advertising

Hanoi weather history for previous 24 hours

 ConditionsComfort  
Time TempWeatherWind HumidityBarometerVisibility
2:30 AM
Jan 27
68 °FPassing clouds.10 mph88%29.95 "Hg3 mi
2:00 AM68 °FPassing clouds.12 mph83%29.95 "Hg3 mi
1:30 AM68 °FPassing clouds.12 mph83%29.98 "Hg3 mi
1:00 AM68 °FPassing clouds.13 mph83%29.98 "Hg3 mi
12:30 AM68 °FPassing clouds.10 mph83%29.98 "Hg3 mi
12:00 AM68 °FPassing clouds.10 mph83%29.98 "Hg4 mi
11:30 PM
Jan 26
68 °FPassing clouds.12 mph83%29.98 "Hg4 mi
11:00 PM68 °FPassing clouds.9 mph83%29.98 "Hg5 mi
10:30 PM68 °FClear.9 mph83%30.01 "Hg4 mi
10:00 PM68 °FClear.9 mph83%29.98 "Hg4 mi
9:30 PM68 °FClear.9 mph83%29.98 "Hg4 mi
9:00 PM68 °FClear.8 mph78%29.98 "Hg4 mi
8:30 PM68 °FClear.9 mph78%29.98 "Hg5 mi
8:00 PM70 °FClear.12 mph73%29.98 "Hg6 mi
7:30 PM70 °FClear.12 mph78%29.98 "Hg5 mi
7:00 PM72 °FClear.14 mph73%29.95 "Hg5 mi
6:30 PM72 °FClear.14 mph73%29.95 "Hg5 mi
6:00 PM73 °FClear.10 mph69%29.95 "Hg5 mi
5:30 PM73 °FPartly sunny.12 mph69%29.92 "Hg6 mi
5:00 PM75 °FPartly sunny.13 mph65%29.92 "HgN/A
4:30 PM77 °FBroken clouds.12 mph61%29.92 "HgN/A
4:00 PM77 °FBroken clouds.14 mph61%29.92 "HgN/A
3:30 PM77 °FPartly sunny.10 mph61%29.92 "HgN/A
3:00 PM79 °FPartly sunny.12 mph54%29.95 "HgN/A
2:30 PM79 °FPartly sunny.12 mph54%29.95 "HgN/A
2:00 PM77 °FPartly sunny.8 mph57%29.98 "HgN/A
1:30 PM77 °FBroken clouds.10 mph57%29.98 "HgN/A
1:00 PM79 °FBroken clouds.8 mph54%30.01 "Hg6 mi
12:30 PM75 °FBroken clouds.9 mph65%30.04 "Hg6 mi
12:00 PM77 °FBroken clouds.8 mph61%30.04 "Hg6 mi
11:30 AM73 °FBroken clouds.8 mph65%30.07 "Hg6 mi
11:00 AM73 °FSmoke.3 mph69%30.07 "HgN/A
10:30 AM73 °FBroken clouds.9 mph69%30.09 "Hg4 mi
10:00 AM72 °FBroken clouds.8 mph73%30.09 "Hg4 mi
9:30 AM72 °FBroken clouds.9 mph73%30.09 "Hg4 mi
9:00 AM70 °FPartly sunny.8 mph78%30.09 "Hg4 mi
8:30 AM68 °FBroken clouds.8 mph83%30.07 "Hg3 mi
8:00 AM66 °FFog.7 mph88%30.07 "Hg3 mi
7:30 AM66 °FFog.6 mph88%30.07 "Hg2 mi
7:00 AM66 °FFog.7 mph88%30.04 "Hg2 mi
6:30 AM66 °FFog.7 mph88%30.04 "Hg3 mi
6:00 AM66 °FFog.8 mph88%30.04 "Hg3 mi
5:30 AM66 °FFog.7 mph88%30.01 "Hg3 mi
5:00 AM66 °FFog.8 mph88%30.01 "Hg2 mi
4:30 AM66 °FFog.8 mph88%30.01 "Hg2 mi
4:00 AM66 °FFog.9 mph88%30.01 "Hg2 mi
3:30 AM68 °FFog.10 mph83%30.01 "Hg3 mi
3:00 AM68 °FFog.8 mph83%30.01 "Hg3 mi
Weather by CustomWeather, © 2014

See weather overviewHow to use our weather pages